Voltar ao catálogo

STARLINK-5905

AtivoComunicaçõesVLEO
NORAD 55986·PAYLOAD·🇺🇸 United States

Lançado Mar 24, 2023 de Cape Canaveral Space Force Station

Loading…

Próximas Passagens (próximas 24 horas)

TLE

AtualizadoSource: CelesTrak SupGP

Época: Sep 14, 2026, 20:54 UTC

1 55986C 23042A   26257.87131944  .00042039  00000+0  15234-2 0  2574
2 55986  43.0013  71.4759 0001373 276.3783 280.1934 15.27540470    12

Acompanhe STARLINK-5905 em tempo real com AllMySat

Download on the App Store